Location: Cucq
(50.4773°N, 1.6202°E)
Time: 07:34:45
(UTC+00:00)

IRS-1C - Pass Details

Date: 07 August 2020
Orbit: 816 x 817 km, 98.8° (Epoch: 27 September)

Event Time Altitude Azimuth Distance (km) Brightness Sun altitude
Rises 02:26:31 0° 17° (NNE) 3,359 8.7 -15.8°
Reaches altitude 10° 02:28:54 10° 20° (NNE) 2,422 7.8 -15.6°
Maximum altitude 02:34:14 65° 103° (ESE) 897 4.4 -15.1°
Enters shadow 02:38:41 15° 183° (S) 2,080 5.8 -14.6°
